欧洲卫星公司-20星 (SES-20)

导读 | 星芒AI

SES-20 是由 SES 运营的一颗高吞吐量通信卫星,于 2020 年 11 月发射,搭载在波音 702SP 平台上。该卫星位于 101.5°E 轨道位置,主要服务于亚太地区,提供 Ku 波段和 Ka 波段的宽带通信服务。SES-20 专为满足航空、海事和企业用户的高带宽需求而设计,支持灵活的波束覆盖和高效的频谱利用,提升了区域内的连接性能和可靠性。

基本信息
目录编号:
53960
目录名称:
SES 20
国际标识:
2022-123A
轨道中心:
EARTH
卫星名称:
欧洲卫星公司-20星
卫星全名:
欧洲卫星公司-20星 (SES-20)
卫星状态:
在轨 (已飞行1246 天)
发射日期:
2022-10-04 UTC
国别 :
(SES)
星等 :
--
轨道信息
数据来源 国际轨道数据 AOE轨道数据
星历时间 2026-03-02T23:20:09+0800
9小时前
查看轨道信息
2026-03-01T17:00:00+0800
1天前
查看轨道信息
半长轴 42164.812km 42164.7km
偏心率 0.0001362 0.0001382
轨道倾角 0.013° 0.017°
近地点辐角 312.985° 322.963°
升交点赤经 108.610° 104.968°
平近点角 225.732° 123.113°
近地点 35780.932km 35780.735km
远地点 35792.418km 35792.391km
周期 1436.101分钟 1436.095分钟
每日圈数 1.002715 1.002719
详细信息
卫星平台:
BSS-702SP
平衡模式:
三轴稳定
覆盖范围:
大西洋
运营商:
欧洲卫星公司
运营商所在国:
卢森堡
制造商(研发单位):
波音公司
制造商所在国:
美国
使用方式:
暂无
卫星简介
欧洲卫星公司:成立于1985年,总部设在卢森堡。该公司通过运营ASTRA、AMERICOM及 NEW SKIES卫星系统为客户提供电视、广播和多媒体直接到户的信息传送服务,是世界第二大卫星运营商。该卫星仍在工作。
2D轨道图
3D轨道图
轨道高度分析图
轨道倾角分析图
轨道综合分析图
查看轨道综合分析图